FW1786 Weather Reports


Display with metric or nautical units.
time (UTC)temp
F
wind
direction
speed
MPH
gust
MPH
rain 1hr
in
rain 24hr
in
rain mn
in
humidity
%
barometer
mb
20211023165027 79 146 8.0 16.0 0.00 0.00 0.00 71 1012.5
20211023164523 79 169 8.0 16.0 0.00 0.00 0.00 71 1012.6
20211023164020 79 136 11.0 20.0 0.00 0.00 0.00 70 1012.6
20211023163515 79 154 15.0 21.0 0.00 0.00 0.00 71 1012.7
20211023163031 79 154 11.0 21.0 0.00 0.00 0.00 71 1012.7
20211023162528 79 150 13.0 23.0 0.00 0.00 0.00 71 1012.8
20211023162024 79 151 12.0 23.0 0.00 0.00 0.00 70 1012.8
20211023161522 79 160 10.0 18.0 0.00 0.00 0.00 72 1012.8
20211023161019 78 152 12.0 18.0 0.00 0.00 0.00 73 1012.8
20211023160516 77 155 8.0 16.0 0.00 0.00 0.00 76 1012.8
20211023160033 77 165 12.0 17.0 0.00 0.00 0.00 75 1012.8
20211023155529 77 126 11.0 17.0 0.00 0.00 0.00 74 1012.9
20211023155026 77 154 11.0 17.0 0.00 0.00 0.00 75 1012.9
20211023154522 77 147 12.0 17.0 0.00 0.00 0.00 76 1012.9
20211023154022 76 140 14.0 17.0 0.00 0.00 0.00 77 1012.8
20211023153517 76 163 9.0 20.0 0.00 0.00 0.00 78 1012.9
20211023153014 75 163 12.0 20.0 0.00 0.00 0.00 79 1012.9
20211023152530 75 149 12.0 18.0 0.00 0.00 0.00 80 1013.0
20211023152027 75 156 11.0 18.0 0.00 0.00 0.00 81 1013.0
20211023151523 74 173 13.0 19.0 0.00 0.00 0.00 82 1013.0
20211023151019 74 158 12.0 16.0 0.00 0.00 0.00 82 1013.0
20211023150519 73 151 9.0 17.0 0.00 0.00 0.00 83 1013.0
20211023150016 73 155 8.0 16.0 0.00 0.00 0.00 84 1012.9
20211023145532 73 157 11.0 17.0 0.00 0.00 0.00 83 1012.9
20211023145028 73 152 10.0 16.0 0.00 0.00 0.00 83 1012.8
20211023144524 73 143 9.0 17.0 0.00 0.00 0.00 84 1012.8
20211023144020 73 144 12.0 19.0 0.00 0.00 0.00 84 1012.8
20211023143517 72 167 13.0 21.0 0.00 0.00 0.00 85 1012.8
20211023143017 72 148 13.0 21.0 0.00 0.00 0.00 85 1012.7
20211023142533 72 154 11.0 16.0 0.00 0.00 0.00 86 1012.6
20211023142029 71 154 12.0 18.0 0.00 0.00 0.00 87 1012.6
20211023141525 71 166 9.0 14.0 0.00 0.00 0.00 88 1012.6
20211023141021 71 146 9.0 13.0 0.00 0.00 0.00 89 1012.6
20211023140517 70 160 10.0 16.0 0.00 0.00 0.00 90 1012.5
20211023140013 70 167 10.0 17.0 0.00 0.00 0.00 90 1012.6
20211023135513 69 165 9.0 14.0 0.00 0.00 0.00 91 1012.5
20211023135030 69 150 9.0 15.0 0.00 0.00 0.00 91 1012.6
20211023134526 68 148 11.0 14.0 0.00 0.00 0.00 91 1012.5
20211023134022 68 150 9.0 14.0 0.00 0.00 0.00 91 1012.5
20211023133519 68 142 9.0 15.0 0.00 0.00 0.00 91 1012.5
20211023133016 68 144 11.0 18.0 0.00 0.00 0.00 91 1012.4
20211023132513 68 158 12.0 18.0 0.00 0.00 0.00 91 1012.5
20211023132015 68 154 10.0 14.0 0.00 0.00 0.00 91 1012.4
20211023131532 67 138 8.0 12.0 0.00 0.00 0.00 90 1012.4
20211023131030 67 144 8.0 11.0 0.00 0.00 0.00 90 1012.3
20211023130527 67 149 8.0 12.0 0.00 0.00 0.00 90 1012.3
20211023130023 67 141 4.0 8.0 0.00 0.00 0.00 90 1012.3
20211023125519 67 136 5.0 8.0 0.00 0.00 0.00 90 1012.2
20211023125015 67 148 5.0 7.0 0.00 0.00 0.00 89 1012.2
20211023124515 67 136 4.0 7.0 0.00 0.00 0.00 89 1012.1
20211023124030 67 143 3.0 7.0 0.00 0.00 0.00 89 1012.0
20211023123526 67 146 4.0 8.0 0.00 0.00 0.00 89 1012.0
20211023123023 67 142 5.0 8.0 0.00 0.00 0.00 89 1011.9
20211023122520 67 146 5.0 8.0 0.00 0.00 0.00 88 1011.9
20211023122018 67 121 5.0 9.0 0.00 0.00 0.00 88 1011.8
20211023121515 67 125 4.0 9.0 0.00 0.00 0.00 88 1011.8
20211023121014 67 133 3.0 6.0 0.00 0.00 0.00 88 1011.8
20211023120531 67 138 4.0 8.0 0.00 0.00 0.00 88 1011.8
20211023120028 67 124 5.0 8.0 0.00 0.00 0.00 88 1011.8
20211023115524 68 139 4.0 7.0 0.00 0.00 0.00 87 1011.8
20211023115020 68 145 5.0 7.0 0.00 0.00 0.00 87 1011.8
20211023114518 68 140 5.0 7.0 0.00 0.00 0.00 87 1011.8
20211023114013 68 139 4.0 7.0 0.00 0.00 0.00 86 1011.8
20211023113014 68 128 3.0 7.0 0.00 0.00 0.00 86 1011.8
20211023112515 68 152 3.0 8.0 0.00 0.00 0.00 86 1011.8
20211023112032 68 144 5.0 8.0 0.00 0.00 0.00 85 1011.8
20211023111530 69 132 5.0 8.0 0.00 0.00 0.00 85 1011.8
20211023111026 69 140 6.0 8.0 0.00 0.00 0.00 85 1011.7
20211023110523 69 140 4.0 8.0 0.00 0.00 0.00 85 1011.8
20211023110021 69 157 4.0 6.0 0.00 0.00 0.00 84 1011.7
20211023105516 69 144 3.0 6.0 0.00 0.00 0.00 84 1011.7
20211023105017 69 121 4.0 7.0 0.00 0.00 0.00 84 1011.7
20211023104514 69 138 3.0 7.0 0.00 0.00 0.00 84 1011.6
20211023104031 69 144 5.0 8.0 0.00 0.00 0.00 83 1011.6
20211023103528 70 142 5.0 9.0 0.00 0.00 0.00 83 1011.6
20211023103025 70 148 6.0 11.0 0.00 0.00 0.00 83 1011.5
20211023102522 70 154 5.0 12.0 0.00 0.00 0.00 83 1011.5
20211023102019 70 157 7.0 13.0 0.00 0.00 0.00 83 1011.5
20211023101519 70 152 6.0 13.0 0.00 0.00 0.00 83 1011.5
20211023101016 70 139 6.0 11.0 0.00 0.00 0.00 83 1011.6
20211023100513 69 153 8.0 11.0 0.00 0.00 0.00 83 1011.6
20211023100030 69 162 6.0 10.0 0.00 0.00 0.00 83 1011.6
20211023095526 69 143 7.0 10.0 0.00 0.00 0.00 83 1011.6
20211023095022 69 156 8.0 10.0 0.00 0.00 0.00 84 1011.7
20211023094519 69 150 6.0 10.0 0.00 0.00 0.00 84 1011.7
20211023094019 69 143 7.0 10.0 0.00 0.00 0.00 84 1011.7
20211023093515 69 145 6.0 11.0 0.00 0.00 0.00 84 1011.7
20211023093031 69 125 7.0 11.0 0.00 0.00 0.00 84 1011.8
20211023092529 69 135 4.0 9.0 0.00 0.00 0.00 84 1011.8
20211023092026 69 133 3.0 5.0 0.00 0.00 0.00 83 1011.9
20211023091522 69 128 3.0 5.0 0.00 0.00 0.00 83 1011.9
20211023091019 69 131 2.0 3.0 0.00 0.00 0.00 83 1011.9
20211023090520 69 131 1.0 7.0 0.00 0.00 0.00 83 1011.9
20211023090018 69 131 3.0 6.0 0.00 0.00 0.00 83 1012.0
20211023085515 69 131 1.0 4.0 0.00 0.00 0.00 83 1012.0
20211023085032 69 131 2.0 5.0 0.00 0.00 0.00 83 1012.1
20211023084528 69 131 3.0 5.0 0.00 0.00 0.00 83 1012.1
20211023084025 69 131 3.0 7.0 0.00 0.00 0.00 82 1012.1
20211023083522 69 135 3.0 7.0 0.00 0.00 0.00 82 1012.2
20211023083023 70 127 2.0 5.0 0.00 0.00 0.00 82 1012.2
20211023082519 70 123 2.0 4.0 0.00 0.00 0.00 82 1012.3
20211023082017 70 123 3.0 4.0 0.00 0.00 0.00 82 1012.4
20211023081513 70 129 2.0 6.0 0.00 0.00 0.00 82 1012.4
20211023081031 70 144 4.0 6.0 0.00 0.00 0.00 82 1012.5
20211023080526 70 150 4.0 6.0 0.00 0.00 0.00 81 1012.6
20211023080023 70 150 4.0 7.0 0.00 0.00 0.00 81 1012.5
20211023075524 70 149 4.0 6.0 0.00 0.00 0.00 81 1012.6
20211023075021 70 154 1.0 4.0 0.00 0.00 0.00 80 1012.6
20211023074518 70 157 1.0 7.0 0.00 0.00 0.00 81 1012.6
20211023074015 70 146 3.0 7.0 0.00 0.00 0.00 80 1012.6
20211023073513 71 144 4.0 8.0 0.00 0.00 0.00 80 1012.7
20211023073029 71 144 5.0 8.0 0.00 0.00 0.00 80 1012.6
20211023072526 71 139 4.0 8.0 0.00 0.00 0.00 80 1012.6
20211023072026 71 142 6.0 8.0 0.00 0.00 0.00 80 1012.6
20211023071522 71 142 5.0 9.0 0.00 0.00 0.00 79 1012.7
20211023071019 71 143 5.0 10.0 0.00 0.00 0.00 79 1012.7
20211023070516 71 148 6.0 11.0 0.00 0.00 0.00 79 1012.7
20211023070032 71 151 8.0 11.0 0.00 0.00 0.00 79 1012.7
20211023065529 72 148 7.0 10.0 0.00 0.00 0.00 79 1012.7
20211023065026 72 152 7.0 11.0 0.00 0.00 0.00 78 1012.7
20211023064526 72 148 6.0 11.0 0.00 0.00 0.00 78 1012.8
20211023064022 72 146 7.0 13.0 0.00 0.00 0.00 78 1012.8
20211023063520 72 154 8.0 13.0 0.00 0.00 0.00 78 1012.8
20211023063016 72 150 7.0 11.0 0.00 0.00 0.00 78 1012.8
20211023062513 72 166 4.0 9.0 0.00 0.00 0.00 77 1012.8
20211023062029 72 151 6.0 11.0 0.00 0.00 0.00 77 1012.8
20211023061526 72 146 6.0 11.0 0.00 0.00 0.00 77 1012.9
20211023061026 72 156 7.0 12.0 0.00 0.00 0.00 77 1012.9
20211023060524 72 141 7.0 12.0 0.00 0.00 0.00 77 1012.9
20211023060019 72 147 8.0 12.0 0.00 0.00 0.00 77 1013.0
20211023055516 72 162 9.0 11.0 0.00 0.00 0.00 77 1013.0
20211023055013 72 160 7.0 10.0 0.00 0.00 0.00 77 1013.1
20211023054529 72 151 6.0 12.0 0.00 0.00 0.00 76 1013.1
20211023054025 72 150 7.0 11.0 0.00 0.00 0.00 76 1013.1
20211023053526 72 131 5.0 8.0 0.00 0.00 0.00 75 1013.1
20211023053022 72 149 5.0 7.0 0.00 0.00 0.00 75 1013.1
20211023052519 72 143 4.0 7.0 0.00 0.00 0.00 75 1013.1
20211023052015 72 143 3.0 7.0 0.00 0.00 0.00 74 1013.2
20211023051512 72 142 4.0 8.0 0.00 0.00 0.00 74 1013.2
20211023051028 72 140 4.0 8.0 0.00 0.00 0.00 74 1013.2
20211023050524 72 135 7.0 9.0 0.00 0.00 0.00 73 1013.2
20211023050024 72 145 6.0 9.0 0.00 0.00 0.00 73 1013.2
20211023045520 73 140 6.0 10.0 0.00 0.00 0.00 73 1013.3
20211023045017 73 149 7.0 10.0 0.00 0.00 0.00 72 1013.3
20211023044512 73 144 7.0 9.0 0.00 0.00 0.00 72 1013.3
20211023044028 73 156 6.0 9.0 0.00 0.00 0.00 72 1013.3
20211023043524 73 138 6.0 9.0 0.00 0.00 0.00 71 1013.3
20211023043020 73 143 6.0 10.0 0.00 0.00 0.00 71 1013.4
20211023042520 73 138 7.0 10.0 0.00 0.00 0.00 71 1013.4
20211023042014 73 142 7.0 10.0 0.00 0.00 0.00 70 1013.4
20211023041530 73 140 5.0 9.0 0.00 0.00 0.00 70 1013.5
20211023041027 73 138 5.0 10.0 0.00 0.00 0.00 70 1013.5
20211023040522 73 140 6.0 10.0 0.00 0.00 0.00 70 1013.5
20211023040018 73 127 7.0 9.0 0.00 0.00 0.00 70 1013.4
20211023035513 73 151 7.0 9.0 0.00 0.00 0.00 70 1013.5
20211023035013 73 143 5.0 9.0 0.00 0.00 0.00 69 1013.5
20211023034528 73 141 6.0 10.0 0.00 0.00 0.00 69 1013.5
20211023034024 73 145 6.0 10.0 0.00 0.00 0.00 69 1013.5
20211023033519 74 141 5.0 11.0 0.00 0.00 0.00 68 1013.5
20211023033015 74 141 7.0 11.0 0.00 0.00 0.00 68 1013.5
20211023032530 74 147 6.0 10.0 0.00 0.00 0.00 68 1013.4
20211023032026 74 146 7.0 10.0 0.00 0.00 0.00 68 1013.4
20211023031527 74 142 7.0 9.0 0.00 0.00 0.00 68 1013.4
20211023031024 74 141 6.0 9.0 0.00 0.00 0.00 67 1013.5
20211023030023 74 139 7.0 10.0 0.00 0.00 0.00 66 1013.5
20211023025520 75 135 6.0 9.0 0.00 0.00 0.00 66 1013.5
20211023025015 75 133 5.0 9.0 0.00 0.00 0.00 65 1013.5
20211023024532 75 111 5.0 8.0 0.00 0.00 0.00 65 1013.5
20211023024028 75 133 4.0 8.0 0.00 0.00 0.00 65 1013.6
20211023023522 75 130 4.0 7.0 0.00 0.00 0.00 65 1013.5
20211023023023 75 131 4.0 7.0 0.00 0.00 0.00 65 1013.6
20211023022520 75 114 4.0 7.0 0.00 0.00 0.00 65 1013.6
20211023022014 75 134 5.0 7.0 0.00 0.00 0.00 65 1013.7
20211023021530 75 138 4.0 7.0 0.00 0.00 0.00 65 1013.7
20211023021026 75 138 4.0 7.0 0.00 0.00 0.00 65 1013.6
20211023020522 75 127 4.0 6.0 0.00 0.00 0.00 64 1013.6
20211023020017 75 119 3.0 7.0 0.00 0.00 0.00 64 1013.7
20211023015518 76 108 4.0 7.0 0.00 0.00 0.00 64 1013.7
20211023015014 76 106 4.0 7.0 0.00 0.00 0.00 63 1013.7
20211023014530 76 113 3.0 5.0 0.00 0.00 0.00 63 1013.8
20211023013530 76 124 3.0 7.0 0.00 0.00 0.00 62 1013.7
20211023013027 76 102 3.0 6.0 0.00 0.00 0.00 62 1013.8
20211023012523 77 109 3.0 6.0 0.00 0.00 0.00 61 1013.8
20211023012019 77 109 2.0 6.0 0.00 0.00 0.00 61 1013.9
20211023011519 77 118 3.0 7.0 0.00 0.00 0.00 61 1013.8
20211023011014 77 108 4.0 7.0 0.00 0.00 0.00 60 1013.8
20211023010531 77 116 4.0 7.0 0.00 0.00 0.00 60 1013.8
20211023010027 78 129 3.0 7.0 0.00 0.00 0.00 60 1013.7
20211023005523 78 128 3.0 7.0 0.00 0.00 0.00 59 1013.7
20211023005018 78 119 4.0 8.0 0.00 0.00 0.00 58 1013.7
20211023004515 79 106 2.0 7.0 0.00 0.00 0.00 58 1013.7
20211023004016 79 108 3.0 8.0 0.00 0.00 0.00 57 1013.6
20211023003513 79 105 4.0 8.0 0.00 0.00 0.00 56 1013.6
20211023003030 79 108 3.0 6.0 0.00 0.00 0.00 56 1013.6
20211023002526 80 107 3.0 7.0 0.00 0.00 0.00 56 1013.6
20211023002023 80 131 4.0 8.0 0.00 0.00 0.00 55 1013.7
20211023001520 80 139 5.0 9.0 0.00 0.00 0.00 56 1013.6
20211023001017 80 129 5.0 9.0 0.00 0.00 0.00 56 1013.6
20211023000516 80 130 4.0 6.0 0.00 0.00 0.00 56 1013.6
20211023000012 80 116 3.0 8.0 0.00 0.00 0.00 56 1013.7
20211022235529 80 137 4.0 9.0 0.00 0.00 0.00 55 1013.6
20211022235025 80 140 7.0 9.0 0.00 0.00 0.00 55 1013.6
20211022234520 81 139 7.0 10.0 0.00 0.00 0.00 54 1013.7
20211022234018 81 121 7.0 10.0 0.00 0.00 0.00 54 1013.7
20211022233513 81 121 8.0 12.0 0.00 0.00 0.00 53 1013.7
20211022233012 81 148 8.0 12.0 0.00 0.00 0.00 53 1013.7
20211022232530 82 141 6.0 11.0 0.00 0.00 0.00 52 1013.7
20211022231529 82 150 8.0 14.0 0.00 0.00 0.00 52 1013.8
20211022231023 82 156 11.0 15.0 0.00 0.00 0.00 51 1013.8
20211022230514 82 146 9.0 14.0 0.00 0.00 0.00 52 1013.9
20211022230031 82 142 10.0 14.0 0.00 0.00 0.00 51 1013.9
20211022225524 82 152 8.0 14.0 0.00 0.00 0.00 52 1013.9
20211022225020 83 156 6.0 12.0 0.00 0.00 0.00 52 1014.0
20211022224522 83 147 8.0 12.0 0.00 0.00 0.00 51 1014.0
20211022224017 83 167 8.0 12.0 0.00 0.00 0.00 51 1014.0
20211022223514 83 167 8.0 15.0 0.00 0.00 0.00 51 1014.1
20211022223028 83 140 9.0 15.0 0.00 0.00 0.00 51 1014.1
20211022222525 83 150 7.0 15.0 0.00 0.00 0.00 51 1014.1
20211022222020 84 119 9.0 17.0 0.00 0.00 0.00 50 1014.1
20211022221517 83 131 10.0 17.0 0.00 0.00 0.00 51 1014.1
20211022221018 84 153 10.0 14.0 0.00 0.00 0.00 50 1014.1
20211022220516 84 121 9.0 14.0 0.00 0.00 0.00 49 1014.1
20211022220012 84 141 9.0 14.0 0.00 0.00 0.00 50 1014.1
20211022215530 84 142 9.0 13.0 0.00 0.00 0.00 49 1014.2
20211022215026 84 111 9.0 16.0 0.00 0.00 0.00 49 1014.2
20211022214522 84 140 9.0 16.0 0.00 0.00 0.00 49 1014.3
20211022214018 84 123 10.0 17.0 0.00 0.00 0.00 49 1014.3
20211022213519 84 130 12.0 17.0 0.00 0.00 0.00 49 1014.4
20211022213015 85 130 8.0 12.0 0.00 0.00 0.00 49 1014.4
20211022212513 84 156 7.0 15.0 0.00 0.00 0.00 51 1014.4
20211022212029 84 97 8.0 15.0 0.00 0.00 0.00 49 1014.5
20211022211526 85 143 10.0 15.0 0.00 0.00 0.00 50 1014.5
20211022211024 85 141 8.0 15.0 0.00 0.00 0.00 50 1014.6
20211022210520 84 77 7.0 14.0 0.00 0.00 0.00 50 1014.6
20211022210021 84 126 9.0 12.0 0.00 0.00 0.00 48 1014.7
20211022205517 84 112 6.0 11.0 0.00 0.00 0.00 49 1014.7
20211022205013 85 145 6.0 11.0 0.00 0.00 0.00 49 1014.7
20211022204530 84 156 7.0 12.0 0.00 0.00 0.00 49 1014.8
20211022204027 84 92 9.0 12.0 0.00 0.00 0.00 48 1014.8
20211022203524 84 128 4.0 13.0 0.00 0.00 0.00 50 1014.8
20211022203021 84 149 9.0 16.0 0.00 0.00 0.00 48 1014.9
20211022202523 84 100 8.0 15.0 0.00 0.00 0.00 48 1014.9
20211022202020 84 139 10.0 15.0 0.00 0.00 0.00 49 1015.0
20211022201518 84 138 7.0 15.0 0.00 0.00 0.00 51 1015.0
20211022201015 84 124 9.0 16.0 0.00 0.00 0.00 49 1015.1
20211022200531 83 121 9.0 16.0 0.00 0.00 0.00 49 1015.1
20211022200027 83 74 6.0 13.0 0.00 0.00 0.00 49 1015.2
20211022195524 84 102 9.0 13.0 0.00 0.00 0.00 48 1015.3
20211022195025 84 133 5.0 13.0 0.00 0.00 0.00 49 1015.4
20211022194521 84 135 6.0 13.0 0.00 0.00 0.00 49 1015.5
20211022194017 83 138 5.0 14.0 0.00 0.00 0.00 50 1015.6
20211022193514 83 101 7.0 11.0 0.00 0.00 0.00 49 1015.7
20211022193030 83 115 4.0 14.0 0.00 0.00 0.00 48 1015.9
20211022192527 84 136 8.0 14.0 0.00 0.00 0.00 47 1016.0
20211022192025 83 137 7.0 14.0 0.00 0.00 0.00 48 1016.1
20211022191524 83 165 4.0 9.0 0.00 0.00 0.00 48 1016.2
20211022191020 82 150 4.0 10.0 0.00 0.00 0.00 48 1016.3
20211022190513 83 100 6.0 11.0 0.00 0.00 0.00 47 1016.5
20211022190029 82 126 9.0 11.0 0.00 0.00 0.00 45 1016.6
20211022185526 82 98 6.0 13.0 0.00 0.00 0.00 46 1016.7
20211022185023 82 139 5.0 13.0 0.00 0.00 0.00 47 1016.7
20211022184518 82 148 7.0 12.0 0.00 0.00 0.00 46 1016.8
20211022184019 82 144 9.0 12.0 0.00 0.00 0.00 48 1017.0
20211022183515 81 104 8.0 11.0 0.00 0.00 0.00 46 1017.1
20211022183031 81 86 8.0 12.0 0.00 0.00 0.00 45 1017.3
20211022182527 81 108 9.0 12.0 0.00 0.00 0.00 44 1017.4
20211022182024 81 142 7.0 10.0 0.00 0.00 0.00 45 1017.5
20211022181519 81 66 6.0 10.0 0.00 0.00 0.00 43 1017.6
20211022181017 81 117 5.0 12.0 0.00 0.00 0.00 43 1017.7
20211022180516 80 138 6.0 12.0 0.00 0.00 0.00 44 1017.9
20211022180031 80 145 8.0 10.0 0.00 0.00 0.00 45 1018.0
20211022175529 80 46 3.0 11.0 0.00 0.00 0.00 43 1018.1
20211022175025 80 143 6.0 11.0 0.00 0.00 0.00 46 1018.2
20211022174521 80 111 6.0 11.0 0.00 0.00 0.00 43 1018.3
20211022174018 79 122 6.0 12.0 0.00 0.00 0.00 46 1018.4
20211022173515 78 140 8.0 12.0 0.00 0.00 0.00 45 1018.5
20211022173014 79 94 4.0 10.0 0.00 0.00 0.00 44 1018.5
20211022172531 79 98 6.0 11.0 0.00 0.00 0.00 44 1018.6
20211022172028 78 129 4.0 12.0 0.00 0.00 0.00 43 1018.6
20211022171525 78 24 5.0 10.0 0.00 0.00 0.00 43 1018.7
20211022171023 77 73 5.0 9.0 0.00 0.00 0.00 44 1018.9
20211022170521 77 78 5.0 8.0 0.00 0.00 0.00 44 1018.9
20211022170016 77 150 5.0 9.0 0.00 0.00 0.00 43 1019.0
20211022165518 77 84 6.0 9.0 0.00 0.00 0.00 44 1019.1